Regional Weather Roundup
Issued by NWS

Home | Current Version | Previous Version | Text Only | Print | Product List | Glossary Off
Versions: 1 2 3 4 5 6 7 8 9 10 11 12 13 14 15 16 17 18 19 20 21 22 23 24 25 26 27 28 29 30 31 32 33 34 35 36 37 38 39 40 41 42 43 44 45 46 47 48 49 50

000
ASUS43 KBIS 310010
RWRND

NORTH DAKOTA REGIONAL WEATHER ROUNDUP
NATIONAL WEATHER SERVICE BISMARCK ND
700 PM CDT THU JUL 30 2015

NOTE: "FAIR" INDICATES FEW OR NO CLOUDS BELOW 12,000 FEET WITH NO
SIGNIFICANT WEATHER AND/OR OBSTRUCTIONS TO VISIBILITY.


NDZ001>003-009>011-017-310100-
NORTHWEST NORTH DAKOTA

CITY           SKY/WX    TMP DP  RH WIND       PRES   REMARKS
WILLISTON      SUNNY     84  43  23 N8        30.14F
6HR MIN TEMP:  80; 6HR MAX TEMP:  86;

MINOT          SUNNY     78  45  30 NW17      30.11S
MINOT AFB      SUNNY     81  46  28 NW17      30.09S
$$

NDZ018>021-031>035-040>046-310100-
SOUTHWEST NORTH DAKOTA

CITY           SKY/WX    TMP DP  RH WIND       PRES   REMARKS
BISMARCK       SUNNY     83  46  27 N15       30.13S
6HR MIN TEMP:  80; 6HR MAX TEMP:  85;

DICKINSON      SUNNY     82  46  28 NW9       30.15F
GARRISON         N/A     78  50  37 NW13      30.13S
6HR MIN TEMP:  76; 6HR MAX TEMP:  81;

HETTINGER ARPT SUNNY     85  41  21 N15       30.18S
$$

NDZ004>008-012>016-024-026-027-054-310100-
NORTHEAST NORTH DAKOTA

CITY           SKY/WX    TMP DP  RH WIND       PRES   REMARKS
GRAND FORKS    MOSUNNY   80  54  40 W16G25    29.97S
GRND FRKS AFB  MOSUNNY   78  53  41 NW16G29   29.98F
DEVILS LAKE    SUNNY     77  48  36 NW21G28   30.03R
$$

NDZ022-023-025-028>030-036>039-047>053-310100-
SOUTHEAST NORTH DAKOTA

CITY           SKY/WX    TMP DP  RH WIND       PRES   REMARKS
FARGO          SUNNY     82  53  36 NW15      30.01S
6HR MIN TEMP:  82; 6HR MAX TEMP:  84;

JAMESTOWN      SUNNY     80  52  37 NW15      30.07S
$$




USA.gov is the U.S. government's official web portal to all federal, state and local government web resources and services.